Regional Weather Roundup
Issued by NWS

Home | Current Version | Previous Version | Text Only | Print | Product List | Glossary On
Versions: 1 2 3 4 5 6 7 8 9 10 11 12 13 14 15 16 17 18 19 20 21 22 23 24 25 26 27 28 29 30 31 32 33 34 35 36 37 38 39 40 41 42 43 44 45 46 47 48 49 50
293
ASUS45 KREV 301010
RWRNV
NEVADA REGIONAL WEATHER ROUNDUP
NATIONAL WEATHER SERVICE RENO NV
300 AM PDT SAT JUL 30 2016

NOTE: "FAIR" INDICATES FEW OR NO CLOUDS BELOW 12,000 FEET WITH NO
SIGNIFICANT WEATHER AND/OR OBSTRUCTIONS TO VISIBILITY.

NVZ001-003-004-301100-
WESTERN NEVADA

CITY           SKY/WX    TMP DP  RH WIND       PRES   REMARKS
RENO           CLEAR     73  44  35 S5        30.02S
CARSON CITY    FAIR      68  37  32 CALM      30.05F
SLIDE MTN        N/A     61  34  36 W13         N/A
PYRAMID LAKE     N/A     82 N/A N/A W3          N/A
FALLON         CLEAR     72  44  36 S5        29.95F
LOVELOCK       CLEAR     74  46  36 S10       29.93F
HAWTHORNE      CLEAR     75  37  25 CALM      29.98S
$$

NVZ002-CAZ072-073-301100-
NORTHERN AND CENTRAL SIERRA

CITY           SKY/WX    TMP DP  RH WIND       PRES   REMARKS
S. LAKE TAHOE  CLEAR     53  41  63 S3        30.18F
TRUCKEE        CLEAR     54  39  58 CALM      30.17S
SQUAW VLY 8000 NOT AVBL
SUSANVILLE     CLEAR     73  45  35 W6        30.01
MAMMOTH LAKES    N/A     54  42  64 CALM      30.25F
BRIDGEPORT       N/A     53  36  52 CALM      30.21F
$$

NVZ030-031-036-301100-
NORTHERN NEVADA

CITY           SKY/WX    TMP DP  RH WIND       PRES   REMARKS
ELKO           PTCLDY    73  41  31 CALM      30.02S
WINNEMUCCA     PTCLDY    73  41  31 E5        29.95R
WENDOVER       CLEAR     81  39  22 NE10      29.93S
$$

NVZ035-037-301100-
CENTRAL NEVADA

CITY           SKY/WX    TMP DP  RH WIND       PRES   REMARKS
ELY            CLEAR     54  44  69 S15       30.15F
EUREKA           N/A     68  45  43 S7        30.11F
$$

NVZ013-014-301100-
SOUTH CENTRAL NEVADA

CITY           SKY/WX    TMP DP  RH WIND       PRES   REMARKS
TONOPAH        PTCLDY    72  46  39 N3        30.08F
$$

NVZ017-020-022-301100-
SOUTHERN NEVADA

CITY           SKY/WX    TMP DP  RH WIND       PRES   REMARKS
LAS VEGAS      MOCLDY    93  55  27 S16G29    29.80R
N. LAS VEGAS   PTCLDY    93  50  23 S10G17    29.81R
NELLIS AFB     PTCLDY    91  61  35 S30       29.81R
HENDERSON      PTCLDY    88  63  42 S25G37    29.85R HAZE
MERCURY        CLEAR     82  45  27 NE5       29.88S
$$




USA.gov is the U.S. government's official web portal to all federal, state and local government web resources and services.